Regional Weather Roundup
Issued by NWS

Home | Current Version | Previous Version | Text Only | Print | Product List | Glossary On
Versions: 1 2 3 4 5 6 7 8 9 10 11 12 13 14 15 16 17 18 19 20 21 22 23 24 25 26 27 28 29 30 31 32 33 34 35 36 37 38 39 40 41 42 43 44 45 46 47 48 49 50
000
ASUS45 KBOU 280207
RWRCO

WEATHER ROUNDUP FOR COLORADO
NATIONAL WEATHER SERVICE DENVER/BOULDER CO
800 PM MDT WED MAY 27 2015

NOTE: "FAIR" INDICATES FEW OR NO CLOUDS BELOW 12000 FEET WITH NO
SIGNIFICANT WEATHER AND/OR OBSTRUCTIONS TO VISIBILITY.

COZ001>005-013-030-031-280300-
...NORTHWEST COLORADO...

CITY           SKY/WX    TMP DP  RH WIND       PRES   REMARKS
CRAIG          CLOUDY    59  44  57 SW9       30.12R
HAYDEN         CLOUDY    55  43  62 SE6       30.14R
MEEKER         HVY RAIN  53  43  68 W22G35    30.18R
MOUNT WERNER   NOT AVBL
STEAMBOAT SPGS CLOUDY    55  42  62 CALM      30.15S
WALDEN         CLOUDY    50  36  57 SE6       30.21S
$$

COZ006>008-011-280300-
...WEST CENTRAL VALLEYS...

CITY           SKY/WX    TMP DP  RH WIND       PRES   REMARKS
GRAND JUNCTION MOCLDY    63  45  51 NW30G40   30.03R
MONTROSE       PTCLDY    63  41  44 SE13      30.11S
EAGLE          CLOUDY    61  39  44 CALM      30.16R
RIFLE          CLOUDY    65  45  48 NW15G22   30.06R
DELTA          PTCLDY    68  41  36 SE8       30.06R
NUCLA          PTCLDY    64  37  36 E7        30.12R
$$

COZ017>023-064>068-280300-
...SOUTHWEST COLORADO...

CITY           SKY/WX    TMP DP  RH WIND       PRES   REMARKS
DURANGO        MOCLDY    67  31  26 W7        30.11R
CORTEZ         CLEAR     69  41  36 SW3       30.08R
PAGOSA SPRINGS MOCLDY    64  22  20 W6        30.19R
TELLURIDE      RAIN      51  38  61 E9        30.29S
WOLF CREEK PAS NOT AVBL
$$

COZ009-010-012-014-032>034-037-058>063-280300-
...CENTRAL COLORADO...

CITY           SKY/WX    TMP DP  RH WIND       PRES   REMARKS
ASPEN          CLOUDY    54  36  50 SE12G24   30.20R
BUENA VISTA    CLOUDY    50  34  54 W32G43    30.28R
COPPER MTN     TSTM      39  30  70 S21G26    30.42R
BERTHOUD PASS  FAIR      32  27  80 NW14G22   30.44S WCI  22
COTTONWOOD PAS LGT RAIN  45  34  65 W30G46    30.32R
GUNNISON       CLOUDY    48  37  66 NE8       30.27F
KREMMLING      CLOUDY    54  37  54 N7        30.19S
LEADVILLE      CLOUDY    41  34  76 SE18G24   30.32R
SALIDA         CLOUDY    56  38  50 SW13G20   30.29R
SUNLIGHT       CLOUDY    41  36  81 CALM      30.37R
WILKERSON PASS MOCLDY    41  32  70 W8        30.40R
$$

COZ069>075-280300-
...SAN LUIS VALLEY/SANGRE DE CRISTO MOUNTAINS...

CITY           SKY/WX    TMP DP  RH WIND       PRES   REMARKS
ALAMOSA        CLOUDY    58  36  43 NE7       30.17R
LA VETA PASS   CLOUDY   N/A N/A N/A MISG      30.31F
SAGUACHE       CLOUDY    52  37  58 N21G26    30.21S
$$

COZ035-036-038>040-280300-
...NORTHERN COLORADO FRONT RANGE...

CITY           SKY/WX    TMP DP  RH WIND       PRES   REMARKS
DENVER INTL AP MOCLDY    63  45  51 SE9       30.02S
DMNS CITY PARK   N/A     62  52  68 SE3       30.03R
AURORA         MOCLDY    64  47  52 E7        30.05S
FRONT RANGE AP MOCLDY    66  46  48 E6        30.04R
ERIE MUNI ARPT MOCLDY    68  42  39 S6        30.01R
BOULDER MUN AP MOCLDY    70  43  37 SE7       30.02R
CENTENNIAL     MOCLDY    65  45  48 E8        30.05R
BROOMFIELD     MOCLDY    66  45  45 SE6       30.05R
FORT COLLINS   MOCLDY    70  45  40 N5        30.02R
LONGMONT       MOCLDY    71  44  38 CALM      30.03R
$$

COZ041-046-047-076>085-087-088-280300-
...PIKES PEAK/PALMER DIVIDE AND SOUTHERN FOOTHILLS...

CITY           SKY/WX    TMP DP  RH WIND       PRES   REMARKS
COLO. SPRINGS  MOCLDY    63  37  38 SW7       30.07R
A. F. ACADEMY  MOCLDY    67  34  29 N8        30.08R
ELLICOTT       NOT AVBL
FALCON         MOCLDY    64  35  33 NW5       30.12R
FORT CARSON    MOCLDY    65  38  37 SW10      30.04R
LIMON          CLOUDY    61  47  59 S10       30.06R
MONUMENT HILL  MOCLDY    55  45  67 CALM      30.14R
TRINIDAD       LGT RAIN  61  47  59 NW8       30.08R
$$

COZ042>045-048>051-090-091-280300-
...NORTHEAST COLORADO...

CITY           SKY/WX    TMP DP  RH WIND       PRES   REMARKS
GREELEY ARPT   PTCLDY    70  45  40 E3        30.00R
AKRON          CLEAR     64  56  75 E13G22    30.03R
BURLINGTON     PTCLDY    62  54  74 SE22G28   30.04R
WRAY           CLOUDY    62  54  74 E17G23    30.04R
STERLING       CLEAR     63  55  77 SE16G25   30.01R
HOLYOKE        CLOUDY    61  54  77 SE18      30.05R
FORT MORGAN    PTCLDY    66  54  65 NE12      30.02R
$$

COZ086-089-092>099-280300-
...SOUTHEAST COLORADO...

CITY           SKY/WX    TMP DP  RH WIND       PRES   REMARKS
PUEBLO         PTCLDY    66  48  52 S6        30.01R
LA JUNTA       MOCLDY    69  51  52 W5        30.00R
LAMAR          MOCLDY    72  49  44 SW8       29.95R
SPRINGFIELD      N/A     60  52  74 SE9       30.02S
$$



USA.gov is the U.S. government's official web portal to all federal, state and local government web resources and services.